Manistique, MI

2:43 PM EST on February 21, 2017 (GMT -0500)
Schoolcraft County

Weather History for KISQ - February, 2013

Change the Weather History Date:

Thursday, February 7, 2013

  Actual Average Record
Temperature  
Mean Temperature 17 °F -  
Max Temperature 19 °F 24 °F 42 °F (1991)
Min Temperature 15 °F 4 °F -21 °F (1967)
Degree Days  
Heating Degree Days 48    
Moisture  
Dew Point 14 °F    
Average Humidity 85    
Maximum Humidity 93    
Minimum Humidity 79    
Precipitation  
Precipitation 0.00 in - - ()
Sea Level Pressure  
Sea Level Pressure 30.16 in    
Wind  
Wind Speed 9 mph (NE)    
Max Wind Speed 15 mph    
Max Gust Speed 22 mph    
Visibility 7 miles    
Events Snow    
Averages and records for this station are not official NWS values.
T = Trace of Precipitation, MM = Missing Value Source: NWS Daily Summary

Daily Weather History Graph

Daily Weather History Graph

Search for Another Location

Airport or City:

Trip Planner

Search our weather history database for the weather conditions in past years. The results will help you decide how hot, cold, wet, or windy it might be!

Date:

Astronomy

Feb. 07, 2013 Rise Set
Actual Time 7:58 AM EST 5:59 PM EST
Civil Twilight 7:27 AM EST 6:30 PM EST
Nautical Twilight 6:52 AM EST 7:06 PM EST
Astronomical Twilight 6:17 AM EST 7:41 PM EST
Moon 5:43 AM EST (2/7) 3:18 PM EST (2/7)
Length of Visible Light 11h 03m
Length of Day
10h 00m
Waning Crescent, 9% of the Moon is Illuminated
Feb 7
Waning Crescent
Feb 10
New
Feb 17
First Quarter
Feb 25
Full
Mar 4
Last Quarter

Hourly Weather History & Observations

Time (EST) Temp. Windchill Dew Point Humidity Pressure Visibility Wind Dir Wind Speed Gust Speed Precip Events Conditions
12:15 AM 19.4 °F 12.8 °F 15.8 °F 86% 30.18 in 3.0 mi NE 4.6 mph - N/A Snow Light Snow
12:35 AM 19.4 °F 10.4 °F 15.8 °F 86% 30.18 in 3.0 mi NE 6.9 mph - N/A Snow Light Snow
12:54 AM 19.4 °F 10.4 °F 15.8 °F 86% 30.19 in 5.0 mi NE 6.9 mph - N/A Snow Light Snow
1:15 AM 19.4 °F 11.5 °F 15.8 °F 86% 30.19 in 10.0 mi NE 5.8 mph - N/A Snow Light Snow
1:35 AM 19.4 °F 11.5 °F 15.8 °F 86% 30.18 in 10.0 mi ENE 5.8 mph - N/A Snow Light Snow
1:54 AM 19.4 °F 10.4 °F 15.8 °F 86% 30.18 in 7.0 mi ENE 6.9 mph - N/A Snow Light Snow
2:15 AM 19.4 °F 10.4 °F 15.8 °F 86% 30.18 in 4.0 mi ENE 6.9 mph - N/A Snow Light Snow
2:34 AM 19.4 °F 10.4 °F 15.8 °F 86% 30.19 in 5.0 mi NE 6.9 mph - N/A Snow Light Snow
2:55 AM 19.4 °F 10.4 °F 15.8 °F 86% 30.18 in 5.0 mi ENE 6.9 mph - N/A Snow Light Snow
3:15 AM 19.4 °F 8.6 °F 15.8 °F 86% 30.18 in 5.0 mi NE 9.2 mph - N/A Snow Light Snow
3:34 AM 19.4 °F 8.6 °F 15.8 °F 86% 30.18 in 7.0 mi ENE 9.2 mph - N/A Snow Light Snow
3:55 AM 19.4 °F 8.6 °F 15.8 °F 86% 30.17 in 5.0 mi ENE 9.2 mph - N/A Snow Light Snow
4:14 AM 19.4 °F 8.6 °F 15.8 °F 86% 30.16 in 3.0 mi ENE 9.2 mph - N/A Snow Light Snow
4:35 AM 19.4 °F 8.6 °F 15.8 °F 86% 30.17 in 4.0 mi ENE 9.2 mph - N/A Snow Light Snow
4:54 AM 19.4 °F 11.5 °F 15.8 °F 86% 30.17 in 5.0 mi NE 5.8 mph - N/A Snow Light Snow
5:15 AM 19.4 °F 9.5 °F 15.8 °F 86% 30.16 in 2.5 mi ENE 8.1 mph - N/A Snow Light Snow
5:34 AM 17.6 °F 7.3 °F 15.8 °F 93% 30.16 in 3.0 mi ENE 8.1 mph - N/A Snow Light Snow
5:55 AM 17.6 °F 6.4 °F 15.8 °F 93% 30.16 in 4.0 mi ENE 9.2 mph - N/A Snow Light Snow
6:15 AM 17.6 °F 7.3 °F 15.8 °F 93% 30.15 in 4.0 mi ENE 8.1 mph - N/A Snow Light Snow
6:34 AM 17.6 °F 5.7 °F 15.8 °F 93% 30.15 in 4.0 mi ENE 10.4 mph - N/A Snow Light Snow
6:55 AM 17.6 °F 5.7 °F 14.0 °F 86% 30.16 in 3.0 mi ENE 10.4 mph - N/A Snow Light Snow
7:15 AM 17.6 °F 5.7 °F 14.0 °F 86% 30.16 in 3.0 mi ENE 10.4 mph - N/A Snow Light Snow
7:34 AM 17.6 °F 6.4 °F 14.0 °F 86% 30.16 in 4.0 mi ENE 9.2 mph - N/A Snow Light Snow
7:55 AM 17.6 °F 5.7 °F 14.0 °F 86% 30.16 in 7.0 mi ENE 10.4 mph - N/A Snow Light Snow
8:14 AM 17.6 °F 7.3 °F 14.0 °F 86% 30.16 in 7.0 mi ENE 8.1 mph - N/A Snow Light Snow
8:35 AM 17.6 °F 6.4 °F 14.0 °F 86% 30.17 in 7.0 mi ENE 9.2 mph - N/A Snow Light Snow
8:54 AM 17.6 °F 7.3 °F 14.0 °F 86% 30.17 in 10.0 mi ENE 8.1 mph - N/A Snow Light Snow
9:15 AM 17.6 °F 6.4 °F 14.0 °F 86% 30.18 in 10.0 mi ENE 9.2 mph - N/A Snow Light Snow
9:35 AM 17.6 °F 6.4 °F 14.0 °F 86% 30.18 in 5.0 mi ENE 9.2 mph - N/A Snow Light Snow
9:54 AM 17.6 °F 8.2 °F 14.0 °F 86% 30.19 in 4.0 mi ENE 6.9 mph - N/A Snow Light Snow
10:15 AM 17.6 °F 7.3 °F 14.0 °F 86% 30.19 in 5.0 mi NE 8.1 mph - N/A Snow Light Snow
10:34 AM 17.6 °F 7.3 °F 14.0 °F 86% 30.18 in 4.0 mi NE 8.1 mph - N/A Snow Light Snow
10:55 AM 17.6 °F 7.3 °F 14.0 °F 86% 30.18 in 5.0 mi NE 8.1 mph - N/A Snow Light Snow
11:15 AM 17.6 °F 7.3 °F 14.0 °F 86% 30.18 in 5.0 mi NE 8.1 mph - N/A Snow Light Snow
11:34 AM 17.6 °F 6.4 °F 14.0 °F 86% 30.18 in 7.0 mi NE 9.2 mph - N/A Snow Light Snow
11:55 AM 17.6 °F 6.4 °F 14.0 °F 86% 30.18 in 5.0 mi ENE 9.2 mph - N/A Snow Light Snow
12:14 PM 17.6 °F 6.4 °F 14.0 °F 86% 30.18 in 10.0 mi NE 9.2 mph - N/A Snow Light Snow
12:35 PM 17.6 °F 8.2 °F 14.0 °F 86% 30.17 in 10.0 mi NE 6.9 mph - N/A Snow Light Snow
12:55 PM 17.6 °F 7.3 °F 14.0 °F 86% 30.16 in 10.0 mi NE 8.1 mph - N/A   Overcast
1:14 PM 17.6 °F 5.7 °F 15.8 °F 93% 30.16 in 7.0 mi NE 10.4 mph - N/A   Overcast
1:35 PM 17.6 °F 5.7 °F 14.0 °F 86% 30.16 in 7.0 mi NE 10.4 mph - N/A Snow Light Snow
1:55 PM 17.6 °F 6.4 °F 15.8 °F 93% 30.15 in 4.0 mi NE 9.2 mph - N/A Snow Light Snow
2:14 PM 17.6 °F 6.4 °F 14.0 °F 86% 30.14 in 5.0 mi NE 9.2 mph - N/A Snow Light Snow
2:35 PM 17.6 °F 6.4 °F 14.0 °F 86% 30.14 in 5.0 mi NE 9.2 mph - N/A Snow Light Snow
2:54 PM 17.6 °F 6.4 °F 14.0 °F 86% 30.13 in 7.0 mi NE 9.2 mph - N/A Snow Light Snow
3:15 PM 17.6 °F 6.4 °F 14.0 °F 86% 30.14 in 7.0 mi NNE 9.2 mph - N/A Snow Light Snow
3:35 PM 17.6 °F 6.4 °F 12.2 °F 79% 30.15 in 10.0 mi NNE 9.2 mph - N/A Snow Light Snow
3:54 PM 17.6 °F 5.7 °F 12.2 °F 79% 30.14 in 10.0 mi NE 10.4 mph - N/A Snow Light Snow
4:15 PM 17.6 °F 5.0 °F 12.2 °F 79% 30.13 in 10.0 mi NNE 11.5 mph - N/A Snow Light Snow
4:34 PM 17.6 °F 6.4 °F 12.2 °F 79% 30.13 in 10.0 mi NNE 9.2 mph - N/A Snow Light Snow
4:55 PM 17.6 °F 4.3 °F 12.2 °F 79% 30.14 in 10.0 mi NNE 12.7 mph 17.3 mph N/A Snow Light Snow
5:15 PM 15.8 °F 1.4 °F 12.2 °F 86% 30.14 in 10.0 mi NNE 13.8 mph 17.3 mph N/A Snow Light Snow
5:34 PM 15.8 °F 3.4 °F 12.2 °F 86% 30.14 in 10.0 mi NNE 10.4 mph - N/A Snow Light Snow
5:55 PM 15.8 °F 2.1 °F 12.2 °F 86% 30.14 in 10.0 mi NNE 12.7 mph - N/A Snow Light Snow
6:15 PM 15.8 °F 3.4 °F 12.2 °F 86% 30.14 in 10.0 mi NNE 10.4 mph - N/A Snow Light Snow
6:34 PM 17.6 °F 5.0 °F 12.2 °F 79% 30.14 in 10.0 mi NNE 11.5 mph - N/A Snow Light Snow
6:54 PM 17.6 °F 5.0 °F 12.2 °F 79% 30.15 in 10.0 mi NNE 11.5 mph 17.3 mph N/A Snow Light Snow
7:14 PM 17.6 °F 5.0 °F 12.2 °F 79% 30.15 in 10.0 mi NNE 11.5 mph - N/A Snow Light Snow
7:35 PM 17.6 °F 4.3 °F 12.2 °F 79% 30.15 in 10.0 mi NNE 12.7 mph - N/A Snow Light Snow
7:54 PM 17.6 °F 4.3 °F 12.2 °F 79% 30.15 in 10.0 mi North 12.7 mph - N/A   Overcast
8:15 PM 17.6 °F 4.3 °F 12.2 °F 79% 30.15 in 10.0 mi NNE 12.7 mph - N/A   Overcast
8:35 PM 17.6 °F 4.3 °F 12.2 °F 79% 30.15 in 10.0 mi NNE 12.7 mph - N/A   Overcast
8:54 PM 17.6 °F 5.0 °F 12.2 °F 79% 30.15 in 10.0 mi NNE 11.5 mph - N/A   Overcast
9:15 PM 17.6 °F 4.3 °F 12.2 °F 79% 30.15 in 10.0 mi NNE 12.7 mph - N/A   Overcast
9:34 PM 17.6 °F 4.3 °F 12.2 °F 79% 30.15 in 10.0 mi NNE 12.7 mph - N/A   Overcast
9:55 PM 17.6 °F 4.3 °F 12.2 °F 79% 30.15 in 10.0 mi NNE 12.7 mph - N/A   Overcast
10:14 PM 17.6 °F 5.0 °F 14.0 °F 86% 30.16 in 10.0 mi North 11.5 mph - N/A Snow Light Snow
10:35 PM 17.6 °F 5.0 °F 14.0 °F 86% 30.15 in 10.0 mi North 11.5 mph - N/A Snow Light Snow
10:55 PM 17.6 °F 3.7 °F 12.2 °F 79% 30.15 in 10.0 mi North 13.8 mph - N/A Snow Light Snow
11:14 PM 17.6 °F 3.2 °F 12.2 °F 79% 30.16 in 10.0 mi North 15.0 mph 19.6 mph N/A Snow Light Snow
11:35 PM 17.6 °F 4.3 °F 12.2 °F 79% 30.16 in 10.0 mi North 12.7 mph - N/A Snow Light Snow
11:55 PM 17.6 °F 3.2 °F 12.2 °F 79% 30.16 in 10.0 mi North 15.0 mph 21.9 mph N/A Snow Light Snow